Change the Weather History Date:

Thursday, November 24, 2011

  Actual Average (KPOU) Record (KPOU)
Temperature  
Mean Temperature 39 °F 39 °F  
Max Temperature 52 °F 49 °F 71 °F (2014)
Min Temperature 26 °F 29 °F 3 °F (1989)
Degree Days  
Heating Degree Days 26 26  
Month to date heating degree days 537  
Since 1 July heating degree days 1113  
Cooling Degree Days 0 0  
Month to date cooling degree days 0  
Year to date cooling degree days 672  
Moisture  
Dew Point 30 °F    
Average Humidity 84    
Maximum Humidity 100    
Minimum Humidity 54    
Precipitation  
Precipitation 0.00 in 0.12 in 1.13 in (1980)
Month to date precipitation 2.77  
Year to date precipitation 42.30  
Sea Level Pressure  
Sea Level Pressure 30.11 in    
Wind  
Wind Speed 2 mph (WSW)    
Max Wind Speed 9 mph    
Max Gust Speed -    
Visibility 8 miles    
Events Fog    
T = Trace of Precipitation, MM = Missing Value Source: NWS Daily Summary

Daily Weather History Graph

Daily Weather History Graph

Search for Another Location

Airport or City:

Trip Planner

Search our weather history database for the weather conditions in past years. The results will help you decide how hot, cold, wet, or windy it might be!

Date:

Astronomy

Nov. 24, 2011 Rise Set
Actual Time 6:56 AM EST 4:31 PM EST
Civil Twilight 6:25 AM EST 5:01 PM EST
Nautical Twilight 5:51 AM EST 5:35 PM EST
Astronomical Twilight 5:18 AM EST 6:08 PM EST
Moon 6:11 AM EST (11/24) 3:59 PM EST (11/24)
Length of Visible Light 10h 35m
Length of Day
9h 34m
Waning Crescent, 0% of the Moon is Illuminated
Nov 24
Waning Crescent
Nov 25
New
Dec 2
First Quarter
Dec 10
Full
Dec 17
Last Quarter

Hourly Weather History & Observations

Time (EST) Temp. Windchill Dew Point Humidity Pressure Visibility Wind Dir Wind Speed Gust Speed Precip Events Conditions
12:01 AM 28.4 °F - 28.4 °F 100% 30.01 in 2.0 mi Calm Calm - N/A   Clear
12:09 AM 30.2 °F - 28.4 °F 93% 30.01 in 9.0 mi Calm Calm - N/A   Partly Cloudy
12:35 AM 30.2 °F - 28.4 °F 93% 30.02 in 1.8 mi Calm Calm - N/A   Clear
12:41 AM 28.4 °F - 28.4 °F 100% 30.02 in 3.0 mi Calm Calm - N/A   Clear
12:54 AM 28.9 °F - 28.0 °F 96% 30.04 in 9.0 mi Calm Calm - N/A   Clear
1:54 AM 28.9 °F - 28.0 °F 96% 30.05 in 10.0 mi Calm Calm - N/A   Clear
2:54 AM 27.0 °F - 26.1 °F 96% 30.07 in 10.0 mi Calm Calm - N/A   Clear
3:04 AM 26.6 °F - 26.6 °F 100% 30.07 in 2.0 mi Calm Calm - N/A   Partly Cloudy
3:13 AM 28.4 °F - 26.6 °F 93% 30.07 in 0.5 mi Calm Calm - N/A Fog Light Freezing Fog
3:25 AM 28.4 °F - 26.6 °F 93% 30.07 in 1.2 mi Calm Calm - N/A   Scattered Clouds
3:28 AM 28.4 °F - 26.6 °F 93% 30.07 in 4.0 mi Calm Calm - N/A   Scattered Clouds
3:54 AM 28.9 °F - 28.0 °F 96% 30.10 in 10.0 mi Calm Calm - N/A   Clear
4:40 AM 28.4 °F - 26.6 °F 93% 30.10 in 10.0 mi Calm Calm - N/A   Partly Cloudy
5:35 AM 26.6 °F - 24.8 °F 93% 30.11 in 2.0 mi Calm Calm - N/A   Partly Cloudy
5:44 AM 26.6 °F - 24.8 °F 93% 30.12 in 8.0 mi Calm Calm - N/A   Partly Cloudy
6:54 AM 27.0 °F 23.0 °F 25.0 °F 92% 30.14 in 10.0 mi West 3.5 mph - N/A   Clear
7:54 AM 34.0 °F 26.6 °F 28.9 °F 82% 30.15 in 10.0 mi WSW 9.2 mph - N/A   Clear
8:54 AM 37.9 °F 33.5 °F 30.0 °F 73% 30.17 in 10.0 mi WSW 5.8 mph - N/A   Clear
9:54 AM 42.1 °F 37.7 °F 32.0 °F 67% 30.16 in 10.0 mi WNW 6.9 mph - N/A   Clear
10:54 AM 46.0 °F 41.9 °F 34.0 °F 63% 30.16 in 10.0 mi NW 8.1 mph - N/A   Clear
11:54 AM 48.0 °F - 35.1 °F 61% 30.13 in 10.0 mi Calm Calm - N/A   Clear
12:54 PM 52.0 °F - 36.0 °F 54% 30.12 in 10.0 mi Variable 6.9 mph - N/A   Clear
3:54 PM 51.1 °F - 36.0 °F 56% 30.12 in 10.0 mi SSW 5.8 mph - N/A   Clear
4:54 PM 48.9 °F - 34.0 °F 56% 30.13 in 10.0 mi WSW 9.2 mph - N/A   Clear
5:54 PM 45.0 °F 41.8 °F 34.0 °F 65% 30.15 in 10.0 mi SW 5.8 mph - N/A   Clear
6:54 PM 37.9 °F 34.4 °F 35.1 °F 89% 30.15 in 10.0 mi SSW 4.6 mph - N/A   Clear
7:54 PM 35.1 °F - 32.0 °F 89% 30.16 in 10.0 mi Calm Calm - N/A   Clear
8:54 PM 36.0 °F 32.1 °F 32.0 °F 86% 30.16 in 10.0 mi SSW 4.6 mph - N/A   Clear
9:54 PM 37.9 °F 32.7 °F 33.1 °F 83% 30.16 in 10.0 mi SW 6.9 mph - N/A   Clear
10:54 PM 37.9 °F 32.7 °F 34.0 °F 86% 30.17 in 10.0 mi SW 6.9 mph - N/A   Clear